Time,TemperatureF,DewpointF,PressureIn,WindDirection,WindDirectionDegrees,WindSpeedMPH,WindSpeedGustMPH,Humidity,HourlyPrecipIn,Conditions,Clouds,dailyrainin,SoftwareType,DateUTC
2013-01-07 00:00:00,34.5,28.0,30.05,North,5,0.0,5.0,77,0.00,,,0.00,meteohub,2013-01-07 05:00:00,
2013-01-07 00:01:00,34.5,28.0,30.05,North,5,0.0,4.0,77,0.00,,,0.00,meteohub,2013-01-07 05:01:00,
2013-01-07 00:02:00,34.5,28.0,30.05,North,5,0.0,4.0,77,0.00,,,0.00,meteohub,2013-01-07 05:02:00,
2013-01-07 00:07:00,34.5,28.0,30.05,ENE,67,0.0,3.0,77,0.00,,,0.00,meteohub,2013-01-07 05:07:00,
2013-01-07 00:12:00,34.3,27.9,30.05,ENE,59,1.0,3.0,77,0.00,,,0.00,meteohub,2013-01-07 05:12:00,
2013-01-07 00:17:00,34.5,27.7,30.05,ENE,62,0.0,3.0,76,0.00,,,0.00,meteohub,2013-01-07 05:17:00,
2013-01-07 00:22:00,34.7,27.9,30.06,NE,53,4.0,5.0,76,0.00,,,0.00,meteohub,2013-01-07 05:22:00,
2013-01-07 00:27:00,34.9,28.0,30.06,NNE,19,0.0,5.0,76,0.00,,,0.00,meteohub,2013-01-07 05:27:00,
2013-01-07 00:32:00,34.9,28.0,30.06,NNE,19,0.0,5.0,76,0.00,,,0.00,meteohub,2013-01-07 05:32:00,
2013-01-07 00:37:00,34.9,28.0,30.06,NE,46,1.0,4.0,76,0.00,,,0.00,meteohub,2013-01-07 05:37:00,
2013-01-07 00:42:00,34.9,28.0,30.06,NE,46,0.0,5.0,76,0.00,,,0.00,meteohub,2013-01-07 05:42:00,
2013-01-07 00:48:00,34.9,28.0,30.06,NE,46,0.0,5.0,76,0.00,,,0.00,meteohub,2013-01-07 05:48:00,
2013-01-07 00:53:00,34.7,27.9,30.06,ESE,122,2.0,5.0,76,0.00,,,0.00,meteohub,2013-01-07 05:53:00,
2013-01-07 00:58:00,34.5,28.0,30.07,ENE,72,0.0,6.0,77,0.00,,,0.00,meteohub,2013-01-07 05:58:00,
2013-01-07 01:03:00,34.3,27.9,30.06,East,92,1.0,6.0,77,0.00,,,0.00,meteohub,2013-01-07 06:03:00,
2013-01-07 01:08:00,34.3,27.9,30.06,NE,54,4.0,6.0,77,0.00,,,0.00,meteohub,2013-01-07 06:08:00,
2013-01-07 01:13:00,34.5,27.7,30.07,ENE,76,0.0,6.0,76,0.00,,,0.00,meteohub,2013-01-07 06:13:00,
2013-01-07 01:18:00,34.5,28.0,30.07,ENE,61,0.0,6.0,77,0.00,,,0.00,meteohub,2013-01-07 06:18:00,
2013-01-07 01:23:00,34.5,28.0,30.07,ENE,61,0.0,6.0,77,0.00,,,0.00,meteohub,2013-01-07 06:23:00,
2013-01-07 01:28:00,34.5,27.7,30.07,ENE,57,1.0,6.0,76,0.00,,,0.00,meteohub,2013-01-07 06:28:00,
2013-01-07 01:33:00,34.5,27.7,30.08,ENE,67,0.0,7.0,76,0.00,,,0.00,meteohub,2013-01-07 06:33:00,
2013-01-07 01:38:00,34.5,28.0,30.08,East,82,0.0,7.0,77,0.00,,,0.00,meteohub,2013-01-07 06:38:00,
2013-01-07 01:44:00,34.3,27.9,30.09,ENE,65,2.0,7.0,77,0.00,,,0.00,meteohub,2013-01-07 06:44:00,
2013-01-07 01:49:00,34.3,27.5,30.09,ENE,60,0.0,6.0,76,0.00,,,0.00,meteohub,2013-01-07 06:49:00,
2013-01-07 01:54:00,34.5,27.7,30.09,ENE,60,1.0,4.0,76,0.00,,,0.00,meteohub,2013-01-07 06:54:00,
2013-01-07 01:59:00,34.7,27.3,30.09,NNE,24,0.0,7.0,74,0.00,,,0.00,meteohub,2013-01-07 06:59:00,
2013-01-07 02:04:00,34.9,27.7,30.09,West,267,1.0,7.0,75,0.00,,,0.00,meteohub,2013-01-07 07:04:00,
2013-01-07 02:09:00,34.9,27.5,30.09,North,357,2.0,5.0,74,0.00,,,0.00,meteohub,2013-01-07 07:09:00,
2013-01-07 02:14:00,34.9,27.1,30.09,East,91,0.0,5.0,73,0.00,,,0.00,meteohub,2013-01-07 07:14:00,
2013-01-07 02:19:00,34.9,27.5,30.09,WNW,297,4.0,8.0,74,0.00,,,0.00,meteohub,2013-01-07 07:19:00,
2013-01-07 02:24:00,34.9,27.5,30.10,ENE,62,2.0,8.0,74,0.00,,,0.00,meteohub,2013-01-07 07:24:00,
2013-01-07 02:29:00,34.9,27.7,30.10,ENE,60,0.0,8.0,75,0.00,,,0.00,meteohub,2013-01-07 07:29:00,
2013-01-07 02:34:00,34.7,27.3,30.09,ENE,75,1.0,6.0,74,0.00,,,0.00,meteohub,2013-01-07 07:34:00,
2013-01-07 02:39:00,34.7,27.7,30.09,ENE,70,0.0,6.0,75,0.00,,,0.00,meteohub,2013-01-07 07:39:00,
2013-01-07 02:44:00,34.5,27.5,30.09,East,85,0.0,6.0,75,0.00,,,0.00,meteohub,2013-01-07 07:44:00,
2013-01-07 02:49:00,34.5,27.7,30.10,ENE,78,1.0,6.0,76,0.00,,,0.00,meteohub,2013-01-07 07:49:00,
2013-01-07 02:55:00,34.3,27.3,30.10,ENE,61,0.0,6.0,75,0.00,,,0.00,meteohub,2013-01-07 07:55:00,
2013-01-07 03:00:00,34.5,27.5,30.10,ENE,71,0.0,6.0,75,0.00,,,0.00,meteohub,2013-01-07 08:00:00,
2013-01-07 03:05:00,34.5,27.5,30.10,East,100,1.0,6.0,75,0.00,,,0.00,meteohub,2013-01-07 08:05:00,
2013-01-07 03:10:00,34.5,27.1,30.10,ENE,64,2.0,6.0,74,0.00,,,0.00,meteohub,2013-01-07 08:10:00,
2013-01-07 03:15:00,34.3,27.0,30.10,ENE,65,0.0,9.0,74,0.00,,,0.00,meteohub,2013-01-07 08:15:00,
2013-01-07 03:20:00,34.5,26.8,30.10,NE,45,6.0,9.0,73,0.00,,,0.00,meteohub,2013-01-07 08:20:00,
2013-01-07 03:25:00,34.5,26.8,30.10,NE,55,0.0,9.0,73,0.00,,,0.00,meteohub,2013-01-07 08:25:00,
2013-01-07 03:30:00,34.7,27.0,30.10,WSW,243,3.0,9.0,73,0.00,,,0.00,meteohub,2013-01-07 08:30:00,
2013-01-07 03:35:00,34.9,27.1,30.11,NE,40,1.0,9.0,73,0.00,,,0.00,meteohub,2013-01-07 08:35:00,
2013-01-07 03:40:00,34.9,27.5,30.11,NNE,17,2.0,8.0,74,0.00,,,0.00,meteohub,2013-01-07 08:40:00,
2013-01-07 03:45:00,35.1,27.7,30.11,NNE,33,4.0,8.0,74,0.00,,,0.00,meteohub,2013-01-07 08:45:00,
2013-01-07 03:50:00,35.1,27.7,30.11,NE,48,2.0,7.0,74,0.00,,,0.00,meteohub,2013-01-07 08:50:00,
2013-01-07 03:55:00,35.1,27.7,30.11,NE,48,0.0,7.0,74,0.00,,,0.00,meteohub,2013-01-07 08:55:00,
2013-01-07 04:00:00,35.1,27.9,30.11,ENE,63,4.0,6.0,75,0.00,,,0.00,meteohub,2013-01-07 09:00:00,
2013-01-07 04:05:00,35.1,28.2,30.12,ENE,67,1.0,8.0,76,0.00,,,0.00,meteohub,2013-01-07 09:05:00,
2013-01-07 04:10:00,35.1,28.2,30.12,East,79,0.0,8.0,76,0.00,,,0.00,meteohub,2013-01-07 09:10:00,
2013-01-07 04:16:00,34.9,28.0,30.12,ENE,63,0.0,7.0,76,0.00,,,0.00,meteohub,2013-01-07 09:16:00,
2013-01-07 04:21:00,34.9,28.0,30.12,SW,218,1.0,7.0,76,0.00,,,0.00,meteohub,2013-01-07 09:21:00,
2013-01-07 04:26:00,34.9,28.4,30.12,East,83,0.0,6.0,77,0.00,,,0.00,meteohub,2013-01-07 09:26:00,
2013-01-07 04:31:00,34.9,28.8,30.12,NNW,344,4.0,9.0,78,0.00,,,0.00,meteohub,2013-01-07 09:31:00,
2013-01-07 04:36:00,34.7,28.9,30.12,ENE,59,2.0,9.0,79,0.00,,,0.00,meteohub,2013-01-07 09:36:00,
2013-01-07 04:41:00,34.5,28.8,30.13,ENE,68,0.0,9.0,79,0.00,,,0.00,meteohub,2013-01-07 09:41:00,
2013-01-07 04:46:00,34.5,28.8,30.13,NE,41,4.0,8.0,79,0.00,,,0.00,meteohub,2013-01-07 09:46:00,
2013-01-07 04:51:00,34.5,28.9,30.13,NE,39,1.0,8.0,80,0.00,,,0.00,meteohub,2013-01-07 09:51:00,
2013-01-07 04:56:00,34.5,28.9,30.14,NNE,30,1.0,6.0,80,0.00,,,0.00,meteohub,2013-01-07 09:56:00,
2013-01-07 05:01:00,34.3,28.8,30.14,ENE,75,0.0,6.0,80,0.00,,,0.00,meteohub,2013-01-07 10:01:00,
2013-01-07 05:06:00,34.3,29.1,30.14,ENE,65,1.0,6.0,81,0.00,,,0.00,meteohub,2013-01-07 10:06:00,
2013-01-07 05:11:00,34.2,28.9,30.14,ENE,68,2.0,6.0,81,0.00,,,0.00,meteohub,2013-01-07 10:11:00,
2013-01-07 05:17:00,34.2,29.3,30.15,ENE,75,0.0,7.0,82,0.00,,,0.00,meteohub,2013-01-07 10:17:00,
2013-01-07 05:22:00,34.2,29.5,30.15,ENE,74,0.0,8.0,83,0.00,,,0.00,meteohub,2013-01-07 10:22:00,
2013-01-07 05:27:00,34.0,29.7,30.16,ENE,69,6.0,8.0,84,0.00,,,0.00,meteohub,2013-01-07 10:27:00,
2013-01-07 05:32:00,33.6,29.7,30.16,NE,44,0.0,8.0,85,0.00,,,0.00,meteohub,2013-01-07 10:32:00,
2013-01-07 05:37:00,33.6,29.8,30.17,East,84,0.0,8.0,86,0.00,,,0.00,meteohub,2013-01-07 10:37:00,
2013-01-07 05:42:00,33.4,29.5,30.17,ENE,64,5.0,7.0,85,0.00,,,0.00,meteohub,2013-01-07 10:42:00,
2013-01-07 05:47:00,33.6,29.3,30.18,ENE,69,4.0,7.0,84,0.00,,,0.00,meteohub,2013-01-07 10:47:00,
2013-01-07 05:52:00,33.6,28.9,30.18,NE,39,5.0,7.0,83,0.00,,,0.00,meteohub,2013-01-07 10:52:00,
2013-01-07 05:57:00,33.6,28.9,30.19,NE,38,8.0,8.0,83,0.00,,,0.00,meteohub,2013-01-07 10:57:00,
2013-01-07 06:02:00,33.6,27.9,30.19,NNE,27,0.0,8.0,79,0.00,,,0.00,meteohub,2013-01-07 11:02:00,
2013-01-07 06:07:00,33.6,27.5,30.19,ENE,63,7.0,15.0,78,0.00,,,0.00,meteohub,2013-01-07 11:07:00,
2013-01-07 06:12:00,33.6,26.8,30.19,NNE,33,4.0,15.0,76,0.00,,,0.00,meteohub,2013-01-07 11:12:00,
2013-01-07 06:17:00,33.6,26.8,30.19,NE,44,1.0,15.0,76,0.00,,,0.00,meteohub,2013-01-07 11:17:00,
2013-01-07 06:22:00,33.4,26.1,30.20,NNW,348,1.0,11.0,74,0.00,,,0.00,meteohub,2013-01-07 11:22:00,
2013-01-07 06:28:00,33.4,25.7,30.20,SSW,208,3.0,11.0,73,0.00,,,0.00,meteohub,2013-01-07 11:28:00,
2013-01-07 06:33:00,33.4,25.0,30.21,South,191,0.0,9.0,71,0.00,,,0.00,meteohub,2013-01-07 11:33:00,
2013-01-07 06:38:00,33.3,24.8,30.20,NNE,17,3.0,9.0,71,0.00,,,0.00,meteohub,2013-01-07 11:38:00,
2013-01-07 06:43:00,33.1,24.6,30.21,ENE,62,1.0,12.0,71,0.00,,,0.00,meteohub,2013-01-07 11:43:00,
2013-01-07 06:48:00,33.1,24.4,30.22,ENE,57,2.0,12.0,70,0.00,,,0.00,meteohub,2013-01-07 11:48:00,
2013-01-07 06:53:00,32.7,24.4,30.22,East,79,2.0,8.0,71,0.00,,,0.00,meteohub,2013-01-07 11:53:00,
2013-01-07 06:58:00,32.7,24.4,30.22,NE,55,4.0,9.0,71,0.00,,,0.00,meteohub,2013-01-07 11:58:00,
2013-01-07 07:03:00,32.5,24.3,30.22,ENE,65,4.0,11.0,71,0.00,,,0.00,meteohub,2013-01-07 12:03:00,
2013-01-07 07:08:00,32.4,24.1,30.22,NE,36,5.0,11.0,71,0.00,,,0.00,meteohub,2013-01-07 12:08:00,
2013-01-07 07:13:00,32.4,23.7,30.23,NE,50,6.0,11.0,70,0.00,,,0.00,meteohub,2013-01-07 12:13:00,
2013-01-07 07:18:00,32.4,23.7,30.23,North,1,3.0,9.0,70,0.00,,,0.00,meteohub,2013-01-07 12:18:00,
2013-01-07 07:23:00,32.2,23.2,30.24,ENE,59,0.0,9.0,69,0.00,,,0.00,meteohub,2013-01-07 12:23:00,
2013-01-07 07:28:00,32.2,23.2,30.24,East,93,0.0,9.0,69,0.00,,,0.00,meteohub,2013-01-07 12:28:00,
2013-01-07 07:33:00,32.0,23.0,30.24,NE,47,0.0,7.0,69,0.00,,,0.00,meteohub,2013-01-07 12:33:00,
2013-01-07 07:38:00,31.8,22.8,30.25,NE,38,5.0,7.0,69,0.00,,,0.00,meteohub,2013-01-07 12:38:00,
2013-01-07 07:43:00,31.6,22.6,30.25,North,353,2.0,7.0,69,0.00,,,0.00,meteohub,2013-01-07 12:43:00,
2013-01-07 07:49:00,31.6,22.6,30.25,ENE,67,7.0,7.0,69,0.00,,,0.00,meteohub,2013-01-07 12:49:00,
2013-01-07 07:54:00,31.5,22.5,30.25,NNE,25,1.0,8.0,69,0.00,,,0.00,meteohub,2013-01-07 12:54:00,
2013-01-07 07:59:00,31.5,22.8,30.26,NNW,343,3.0,8.0,70,0.00,,,0.00,meteohub,2013-01-07 12:59:00,
2013-01-07 08:04:00,31.5,22.5,30.26,NE,35,1.0,8.0,69,0.00,,,0.00,meteohub,2013-01-07 13:04:00,
2013-01-07 08:09:00,31.5,22.8,30.26,NNE,23,4.0,8.0,70,0.00,,,0.00,meteohub,2013-01-07 13:09:00,
2013-01-07 08:14:00,31.5,22.8,30.27,NE,50,1.0,9.0,70,0.00,,,0.00,meteohub,2013-01-07 13:14:00,
2013-01-07 08:19:00,31.5,22.8,30.27,NE,44,2.0,9.0,70,0.00,,,0.00,meteohub,2013-01-07 13:19:00,
2013-01-07 08:24:00,31.3,23.0,30.27,ENE,63,2.0,9.0,71,0.00,,,0.00,meteohub,2013-01-07 13:24:00,
2013-01-07 08:29:00,31.3,22.6,30.27,NE,53,1.0,9.0,70,0.00,,,0.00,meteohub,2013-01-07 13:29:00,
2013-01-07 08:34:00,31.3,22.6,30.28,NE,42,0.0,9.0,70,0.00,,,0.00,meteohub,2013-01-07 13:34:00,
2013-01-07 08:39:00,31.3,22.6,30.28,NE,44,4.0,9.0,70,0.00,,,0.00,meteohub,2013-01-07 13:39:00,
2013-01-07 08:44:00,30.9,22.3,30.29,NE,53,4.0,8.0,70,0.00,,,0.00,meteohub,2013-01-07 13:44:00,
2013-01-07 08:50:00,30.9,22.3,30.29,ENE,63,4.0,8.0,70,0.00,,,0.00,meteohub,2013-01-07 13:50:00,
2013-01-07 08:55:00,30.9,21.9,30.30,NE,55,4.0,13.0,69,0.00,,,0.00,meteohub,2013-01-07 13:55:00,
2013-01-07 09:00:00,30.9,21.6,30.30,ENE,70,9.0,14.0,68,0.00,,,0.00,meteohub,2013-01-07 14:00:00,
2013-01-07 09:05:00,31.1,21.7,30.30,ENE,58,1.0,14.0,68,0.00,,,0.00,meteohub,2013-01-07 14:05:00,
2013-01-07 09:10:00,31.1,21.7,30.31,ENE,74,2.0,13.0,68,0.00,,,0.00,meteohub,2013-01-07 14:10:00,
2013-01-07 09:15:00,31.3,21.9,30.32,NNW,337,3.0,12.0,68,0.00,,,0.00,meteohub,2013-01-07 14:15:00,
2013-01-07 09:20:00,31.3,21.9,30.32,NE,43,0.0,11.0,68,0.00,,,0.00,meteohub,2013-01-07 14:20:00,
2013-01-07 09:25:00,31.5,21.7,30.32,ENE,75,4.0,11.0,67,0.00,,,0.00,meteohub,2013-01-07 14:25:00,
2013-01-07 09:30:00,31.3,21.6,30.32,NE,44,0.0,8.0,67,0.00,,,0.00,meteohub,2013-01-07 14:30:00,
2013-01-07 09:35:00,31.5,21.4,30.33,ENE,65,6.0,9.0,66,0.00,,,0.00,meteohub,2013-01-07 14:35:00,
2013-01-07 09:40:00,31.6,21.6,30.33,NE,56,0.0,9.0,66,0.00,,,0.00,meteohub,2013-01-07 14:40:00,
2013-01-07 09:45:00,31.8,21.7,30.34,NNE,31,5.0,9.0,66,0.00,,,0.00,meteohub,2013-01-07 14:45:00,
2013-01-07 09:50:00,32.0,21.6,30.35,ENE,57,6.0,9.0,65,0.00,,,0.00,meteohub,2013-01-07 14:50:00,
2013-01-07 09:55:00,32.0,21.2,30.35,ENE,68,1.0,8.0,64,0.00,,,0.00,meteohub,2013-01-07 14:55:00,
2013-01-07 10:01:00,32.0,21.6,30.35,ENE,67,0.0,6.0,65,0.00,,,0.00,meteohub,2013-01-07 15:01:00,
2013-01-07 10:06:00,32.2,21.7,30.35,ENE,58,6.0,6.0,65,0.00,,,0.00,meteohub,2013-01-07 15:06:00,
2013-01-07 10:11:00,31.8,21.0,30.35,East,91,1.0,8.0,64,0.00,,,0.00,meteohub,2013-01-07 15:11:00,
2013-01-07 10:16:00,31.6,20.8,30.35,NE,42,5.0,9.0,64,0.00,,,0.00,meteohub,2013-01-07 15:16:00,
2013-01-07 10:21:00,31.5,20.7,30.36,NE,56,5.0,9.0,64,0.00,,,0.00,meteohub,2013-01-07 15:21:00,
2013-01-07 10:26:00,31.3,20.8,30.35,NE,42,5.0,10.0,65,0.00,,,0.00,meteohub,2013-01-07 15:26:00,
2013-01-07 10:31:00,31.5,21.0,30.35,NE,49,5.0,10.0,65,0.00,,,0.00,meteohub,2013-01-07 15:31:00,
2013-01-07 10:36:00,31.6,21.2,30.35,East,88,5.0,9.0,65,0.00,,,0.00,meteohub,2013-01-07 15:36:00,
2013-01-07 10:41:00,31.8,21.0,30.35,NE,36,5.0,9.0,64,0.00,,,0.00,meteohub,2013-01-07 15:41:00,
2013-01-07 10:46:00,32.0,21.6,30.35,NE,50,4.0,9.0,65,0.00,,,0.00,meteohub,2013-01-07 15:46:00,
2013-01-07 10:51:00,32.2,21.4,30.35,NNW,342,0.0,9.0,64,0.00,,,0.00,meteohub,2013-01-07 15:51:00,
2013-01-07 10:56:00,32.4,21.6,30.35,ENE,65,2.0,7.0,64,0.00,,,0.00,meteohub,2013-01-07 15:56:00,
2013-01-07 11:01:00,32.7,22.3,30.35,NNE,27,2.0,7.0,65,0.00,,,0.00,meteohub,2013-01-07 16:01:00,
2013-01-07 11:07:00,32.9,21.7,30.35,NE,55,4.0,6.0,63,0.00,,,0.00,meteohub,2013-01-07 16:07:00,
2013-01-07 11:12:00,32.9,21.4,30.35,East,90,1.0,6.0,62,0.00,,,0.00,meteohub,2013-01-07 16:12:00,
2013-01-07 11:17:00,33.1,21.6,30.35,SSW,194,0.0,6.0,62,0.00,,,0.00,meteohub,2013-01-07 16:17:00,
2013-01-07 11:22:00,33.6,22.5,30.36,NNE,21,1.0,5.0,63,0.00,,,0.00,meteohub,2013-01-07 16:22:00,
2013-01-07 11:27:00,33.6,20.8,30.36,North,352,2.0,7.0,59,0.00,,,0.00,meteohub,2013-01-07 16:27:00,
2013-01-07 11:32:00,33.3,21.2,30.35,ENE,77,0.0,7.0,61,0.00,,,0.00,meteohub,2013-01-07 16:32:00,
2013-01-07 11:37:00,33.4,21.0,30.35,ENE,61,2.0,9.0,60,0.00,,,0.00,meteohub,2013-01-07 16:37:00,
2013-01-07 11:42:00,34.0,21.9,30.35,East,84,1.0,9.0,61,0.00,,,0.00,meteohub,2013-01-07 16:42:00,
2013-01-07 11:47:00,34.3,21.6,30.35,NE,45,0.0,9.0,59,0.00,,,0.00,meteohub,2013-01-07 16:47:00,
2013-01-07 11:52:00,35.1,21.7,30.35,SSE,160,1.0,6.0,58,0.00,,,0.00,meteohub,2013-01-07 16:52:00,
2013-01-07 11:57:00,35.4,21.2,30.35,SE,143,0.0,5.0,56,0.00,,,0.00,meteohub,2013-01-07 16:57:00,
2013-01-07 12:02:00,35.4,21.7,30.35,East,82,0.0,6.0,57,0.00,,,0.00,meteohub,2013-01-07 17:02:00,
2013-01-07 12:07:00,35.8,21.6,30.35,ENE,74,0.0,6.0,56,0.00,,,0.00,meteohub,2013-01-07 17:07:00,
2013-01-07 12:12:00,36.3,21.7,30.35,ENE,74,0.0,6.0,55,0.00,,,0.00,meteohub,2013-01-07 17:12:00,
2013-01-07 12:17:00,36.9,21.7,30.35,ENE,65,0.0,6.0,54,0.00,,,0.00,meteohub,2013-01-07 17:17:00,
2013-01-07 12:22:00,37.0,20.7,30.35,NNE,24,1.0,4.0,51,0.00,,,0.00,meteohub,2013-01-07 17:22:00,
2013-01-07 12:27:00,36.7,20.3,30.35,NE,50,2.0,6.0,51,0.00,,,0.00,meteohub,2013-01-07 17:27:00,
2013-01-07 12:32:00,36.9,20.8,30.35,ENE,67,0.0,6.0,52,0.00,,,0.00,meteohub,2013-01-07 17:32:00,
2013-01-07 12:37:00,37.2,21.7,30.35,ENE,65,0.0,4.0,53,0.00,,,0.00,meteohub,2013-01-07 17:37:00,
2013-01-07 12:42:00,37.6,20.1,30.35,ENE,60,4.0,6.0,49,0.01,,,0.01,meteohub,2013-01-07 17:42:00,
2013-01-07 12:47:00,36.9,19.4,30.35,ENE,58,2.0,6.0,49,0.01,,,0.01,meteohub,2013-01-07 17:47:00,
2013-01-07 12:52:00,36.7,19.8,30.35,NE,47,2.0,6.0,50,0.01,,,0.01,meteohub,2013-01-07 17:52:00,
2013-01-07 12:57:00,36.7,18.9,30.35,NE,37,1.0,5.0,48,0.01,,,0.01,meteohub,2013-01-07 17:57:00,
2013-01-07 13:02:00,36.7,20.3,30.35,NE,52,0.0,5.0,51,0.01,,,0.01,meteohub,2013-01-07 18:02:00,
2013-01-07 13:07:00,36.5,18.7,30.35,North,352,1.0,5.0,48,0.01,,,0.01,meteohub,2013-01-07 18:07:00,
2013-01-07 13:12:00,36.1,18.9,30.35,ESE,117,3.0,6.0,49,0.01,,,0.01,meteohub,2013-01-07 18:12:00,
2013-01-07 13:17:00,36.7,19.8,30.35,ENE,62,0.0,6.0,50,0.01,,,0.01,meteohub,2013-01-07 18:17:00,
2013-01-07 13:22:00,37.0,20.1,30.36,ENE,57,1.0,6.0,50,0.01,,,0.01,meteohub,2013-01-07 18:22:00,
2013-01-07 13:27:00,36.7,19.8,30.36,NE,42,2.0,6.0,50,0.01,,,0.01,meteohub,2013-01-07 18:27:00,
2013-01-07 13:32:00,36.9,19.4,30.36,NNW,330,1.0,5.0,49,0.01,,,0.01,meteohub,2013-01-07 18:32:00,
2013-01-07 13:37:00,37.0,19.6,30.37,ENE,58,4.0,6.0,49,0.01,,,0.02,meteohub,2013-01-07 18:37:00,
2013-01-07 13:42:00,37.0,20.1,30.37,NE,49,2.0,6.0,50,0.01,,,0.02,meteohub,2013-01-07 18:42:00,
2013-01-07 13:47:00,37.9,21.0,30.37,NE,43,1.0,6.0,50,0.01,,,0.02,meteohub,2013-01-07 18:47:00,
2013-01-07 13:52:00,38.7,21.6,30.36,NNE,29,1.0,5.0,50,0.01,,,0.02,meteohub,2013-01-07 18:52:00,
2013-01-07 13:57:00,38.7,21.6,30.36,ENE,75,1.0,5.0,50,0.01,,,0.02,meteohub,2013-01-07 18:57:00,
2013-01-07 14:02:00,38.7,19.2,30.36,NNE,13,2.0,5.0,45,0.01,,,0.02,meteohub,2013-01-07 19:02:00,
2013-01-07 14:07:00,38.7,20.7,30.35,ENE,63,1.0,5.0,48,0.01,,,0.02,meteohub,2013-01-07 19:07:00,
2013-01-07 14:12:00,38.8,19.8,30.36,North,8,1.0,4.0,46,0.01,,,0.02,meteohub,2013-01-07 19:12:00,
2013-01-07 14:17:00,38.7,20.1,30.36,ENE,67,0.0,4.0,47,0.01,,,0.02,meteohub,2013-01-07 19:17:00,
2013-01-07 14:22:00,38.7,19.2,30.36,NNE,13,2.0,4.0,45,0.01,,,0.02,meteohub,2013-01-07 19:22:00,
2013-01-07 14:27:00,37.8,18.9,30.36,North,6,0.0,4.0,46,0.01,,,0.02,meteohub,2013-01-07 19:27:00,
2013-01-07 14:32:00,36.9,19.4,30.36,WNW,292,2.0,3.0,49,0.01,,,0.02,meteohub,2013-01-07 19:32:00,
2013-01-07 14:37:00,34.3,19.4,30.35,WNW,282,0.0,3.0,54,0.00,,,0.02,meteohub,2013-01-07 19:37:00,
2013-01-07 14:42:00,32.4,19.6,30.35,West,273,0.0,3.0,59,0.00,,,0.02,meteohub,2013-01-07 19:42:00,
2013-01-07 14:47:00,31.6,17.8,30.35,West,273,0.0,3.0,56,0.00,,,0.02,meteohub,2013-01-07 19:47:00,
2013-01-07 14:52:00,32.0,18.5,30.36,NNW,335,1.0,3.0,57,0.00,,,0.02,meteohub,2013-01-07 19:52:00,
2013-01-07 14:57:00,32.4,18.5,30.36,ENE,59,0.0,3.0,56,0.00,,,0.02,meteohub,2013-01-07 19:57:00,
2013-01-07 15:02:00,32.4,18.5,30.36,ENE,59,0.0,4.0,56,0.00,,,0.02,meteohub,2013-01-07 20:02:00,
2013-01-07 15:07:00,31.6,19.0,30.36,ENE,59,1.0,4.0,59,0.00,,,0.02,meteohub,2013-01-07 20:07:00,
2013-01-07 15:12:00,30.9,19.4,30.37,ENE,59,1.0,1.0,62,0.00,,,0.02,meteohub,2013-01-07 20:12:00,
2013-01-07 15:17:00,30.4,19.2,30.37,WNW,292,0.0,2.0,63,0.00,,,0.02,meteohub,2013-01-07 20:17:00,
2013-01-07 15:19:00,30.2,19.6,30.37,WNW,292,0.0,2.0,64,0.00,,,0.02,meteohub,2013-01-07 20:19:00,
2013-01-07 15:24:00,29.8,19.6,30.38,WNW,292,0.0,2.0,65,0.00,,,0.02,meteohub,2013-01-07 20:24:00,
2013-01-07 15:29:00,29.8,19.6,30.38,WNW,292,0.0,2.0,65,0.00,,,0.02,meteohub,2013-01-07 20:29:00,
2013-01-07 15:34:00,29.5,20.3,30.38,SSW,193,0.0,2.0,68,0.00,,,0.02,meteohub,2013-01-07 20:34:00,
2013-01-07 15:39:00,29.1,20.5,30.38,SSW,193,0.0,3.0,70,0.00,,,0.02,meteohub,2013-01-07 20:39:00,
2013-01-07 15:44:00,28.6,19.8,30.38,SSW,193,0.0,3.0,69,0.00,,,0.02,meteohub,2013-01-07 20:44:00,
2013-01-07 15:49:00,28.2,19.8,30.38,SSW,193,0.0,3.0,70,0.00,,,0.02,meteohub,2013-01-07 20:49:00,
2013-01-07 15:54:00,28.0,20.1,30.38,SSW,193,0.0,2.0,72,0.00,,,0.02,meteohub,2013-01-07 20:54:00,
2013-01-07 15:59:00,27.7,20.1,30.38,SSW,193,0.0,2.0,73,0.00,,,0.02,meteohub,2013-01-07 20:59:00,
2013-01-07 16:05:00,27.0,19.4,30.38,SSW,193,0.0,2.0,73,0.00,,,0.02,meteohub,2013-01-07 21:05:00,
2013-01-07 16:10:00,26.8,19.9,30.39,SSW,193,0.0,1.0,75,0.00,,,0.02,meteohub,2013-01-07 21:10:00,
2013-01-07 16:15:00,26.4,19.2,30.39,SSW,193,0.0,1.0,74,0.00,,,0.02,meteohub,2013-01-07 21:15:00,
2013-01-07 16:20:00,26.2,19.4,30.39,SSW,193,0.0,1.0,75,0.00,,,0.02,meteohub,2013-01-07 21:20:00,
2013-01-07 16:25:00,26.1,19.2,30.38,SSW,193,0.0,1.0,75,0.00,,,0.02,meteohub,2013-01-07 21:25:00,
2013-01-07 16:30:00,25.9,19.0,30.39,SSW,193,0.0,0.0,75,0.00,,,0.02,meteohub,2013-01-07 21:30:00,
2013-01-07 16:35:00,25.3,18.9,30.39,SSW,193,0.0,0.0,76,0.00,,,0.02,meteohub,2013-01-07 21:35:00,
2013-01-07 16:40:00,25.2,19.0,30.40,SSW,193,0.0,0.0,77,0.00,,,0.02,meteohub,2013-01-07 21:40:00,
2013-01-07 16:45:00,25.0,19.0,30.39,SSW,193,0.0,0.0,78,0.00,,,0.02,meteohub,2013-01-07 21:45:00,
2013-01-07 16:50:00,25.2,19.0,30.39,SSW,193,0.0,1.0,77,0.00,,,0.02,meteohub,2013-01-07 21:50:00,
2013-01-07 16:55:00,25.3,19.2,30.39,SSW,193,0.0,1.0,77,0.00,,,0.02,meteohub,2013-01-07 21:55:00,
2013-01-07 17:01:00,25.0,19.0,30.39,SSW,193,0.0,1.0,78,0.00,,,0.02,meteohub,2013-01-07 22:01:00,
2013-01-07 17:06:00,24.6,18.5,30.39,SSW,193,0.0,1.0,77,0.00,,,0.02,meteohub,2013-01-07 22:06:00,
2013-01-07 17:11:00,24.4,18.5,30.38,SSW,193,0.0,1.0,78,0.00,,,0.02,meteohub,2013-01-07 22:11:00,
2013-01-07 17:16:00,24.3,18.3,30.38,SSW,193,0.0,0.0,78,0.00,,,0.02,meteohub,2013-01-07 22:16:00,
2013-01-07 17:21:00,24.3,18.1,30.38,SSW,193,0.0,0.0,77,0.00,,,0.02,meteohub,2013-01-07 22:21:00,
2013-01-07 17:26:00,24.1,18.1,30.39,SSW,193,0.0,0.0,78,0.00,,,0.02,meteohub,2013-01-07 22:26:00,
2013-01-07 17:31:00,23.9,18.0,30.40,SSW,193,0.0,0.0,78,0.00,,,0.02,meteohub,2013-01-07 22:31:00,
2013-01-07 17:36:00,24.1,18.1,30.40,SSW,193,0.0,0.0,78,0.00,,,0.02,meteohub,2013-01-07 22:36:00,
2013-01-07 17:41:00,23.7,18.5,30.40,SSW,193,0.0,1.0,80,0.00,,,0.02,meteohub,2013-01-07 22:41:00,
2013-01-07 17:47:00,23.7,18.5,30.40,SSW,193,0.0,1.0,80,0.00,,,0.02,meteohub,2013-01-07 22:47:00,
2013-01-07 17:52:00,23.4,18.1,30.39,SSW,193,0.0,1.0,80,0.00,,,0.02,meteohub,2013-01-07 22:52:00,
2013-01-07 17:57:00,23.5,18.5,30.39,SSW,193,0.0,1.0,81,0.00,,,0.02,meteohub,2013-01-07 22:57:00,
2013-01-07 18:02:00,23.5,18.3,30.39,SSW,193,0.0,1.0,80,0.00,,,0.02,meteohub,2013-01-07 23:02:00,
2013-01-07 18:07:00,23.2,18.0,30.39,SSW,193,0.0,1.0,80,0.00,,,0.02,meteohub,2013-01-07 23:07:00,
2013-01-07 18:12:00,22.8,18.0,30.39,SSW,193,0.0,1.0,81,0.00,,,0.02,meteohub,2013-01-07 23:12:00,
2013-01-07 18:17:00,22.5,17.6,30.39,SSW,193,0.0,1.0,81,0.00,,,0.02,meteohub,2013-01-07 23:17:00,
2013-01-07 18:22:00,22.3,18.0,30.39,SSW,193,0.0,1.0,83,0.00,,,0.02,meteohub,2013-01-07 23:22:00,
2013-01-07 18:27:00,22.3,18.0,30.40,SSW,193,0.0,1.0,83,0.00,,,0.02,meteohub,2013-01-07 23:27:00,
2013-01-07 18:32:00,21.9,17.2,30.39,SSW,193,0.0,1.0,82,0.00,,,0.02,meteohub,2013-01-07 23:32:00,
2013-01-07 18:37:00,21.6,17.4,30.40,SSW,193,0.0,1.0,84,0.00,,,0.02,meteohub,2013-01-07 23:37:00,
2013-01-07 18:42:00,21.4,17.2,30.40,SSW,193,0.0,1.0,84,0.00,,,0.02,meteohub,2013-01-07 23:42:00,
2013-01-07 18:47:00,21.0,17.2,30.40,SSW,193,0.0,1.0,85,0.00,,,0.02,meteohub,2013-01-07 23:47:00,
2013-01-07 18:52:00,20.8,17.2,30.39,SSW,193,0.0,0.0,86,0.00,,,0.02,meteohub,2013-01-07 23:52:00,
2013-01-07 18:57:00,20.7,17.1,30.40,SSW,193,0.0,0.0,86,0.00,,,0.02,meteohub,2013-01-07 23:57:00,
2013-01-07 19:02:00,20.7,17.1,30.40,SSW,193,0.0,0.0,86,0.00,,,0.02,meteohub,2013-01-08 00:02:00,
2013-01-07 19:07:00,20.5,16.9,30.40,SSW,193,0.0,0.0,86,0.00,,,0.00,meteohub,2013-01-08 00:07:00,
2013-01-07 19:12:00,20.3,17.1,30.40,SSW,193,0.0,0.0,87,0.00,,,0.00,meteohub,2013-01-08 00:12:00,
2013-01-07 19:17:00,20.1,16.9,30.40,SSW,193,0.0,0.0,87,0.00,,,0.00,meteohub,2013-01-08 00:17:00,
2013-01-07 19:22:00,19.9,16.7,30.40,SSW,193,0.0,0.0,87,0.00,,,0.00,meteohub,2013-01-08 00:22:00,
2013-01-07 19:27:00,19.9,16.7,30.40,SSW,193,1.0,0.0,87,0.00,,,0.00,meteohub,2013-01-08 00:27:00,
2013-01-07 19:32:00,20.1,17.1,30.40,SSW,193,0.0,1.0,88,0.00,,,0.00,meteohub,2013-01-08 00:32:00,
2013-01-07 19:37:00,20.1,16.9,30.40,SSW,193,0.0,1.0,87,0.00,,,0.00,meteohub,2013-01-08 00:37:00,
2013-01-07 19:42:00,19.8,16.7,30.40,SSW,193,0.0,1.0,88,0.00,,,0.00,meteohub,2013-01-08 00:42:00,
2013-01-07 19:47:00,19.6,16.5,30.40,SSW,193,0.0,0.0,88,0.00,,,0.00,meteohub,2013-01-08 00:47:00,
2013-01-07 19:52:00,19.0,16.2,30.40,SSW,193,0.0,1.0,88,0.00,,,0.00,meteohub,2013-01-08 00:52:00,
2013-01-07 19:57:00,18.7,15.8,30.40,SSW,193,0.0,2.0,88,0.00,,,0.00,meteohub,2013-01-08 00:57:00,
2013-01-07 20:02:00,18.9,16.3,30.40,SSW,193,1.0,2.0,90,0.00,,,0.00,meteohub,2013-01-08 01:02:00,
2013-01-07 20:07:00,19.0,16.3,30.40,SSW,193,0.0,2.0,89,0.00,,,0.00,meteohub,2013-01-08 01:07:00,
2013-01-07 20:12:00,19.0,16.3,30.40,SSW,193,0.0,2.0,89,0.00,,,0.00,meteohub,2013-01-08 01:12:00,
2013-01-07 20:17:00,19.2,16.5,30.39,SSW,193,0.0,2.0,89,0.00,,,0.00,meteohub,2013-01-08 01:17:00,
2013-01-07 20:22:00,19.0,16.3,30.40,SSW,193,0.0,1.0,89,0.00,,,0.00,meteohub,2013-01-08 01:22:00,
2013-01-07 20:27:00,18.7,15.8,30.39,SSW,193,0.0,1.0,88,0.00,,,0.00,meteohub,2013-01-08 01:27:00,
2013-01-07 20:32:00,18.7,16.0,30.39,SSW,193,0.0,1.0,89,0.00,,,0.00,meteohub,2013-01-08 01:32:00,
2013-01-07 20:38:00,18.3,15.4,30.39,SSW,193,0.0,1.0,88,0.00,,,0.00,meteohub,2013-01-08 01:38:00,
2013-01-07 20:43:00,18.0,14.7,30.39,SSW,193,0.0,1.0,87,0.00,,,0.00,meteohub,2013-01-08 01:43:00,
2013-01-07 20:48:00,17.8,15.1,30.39,SSW,193,0.0,1.0,89,0.00,,,0.00,meteohub,2013-01-08 01:48:00,
2013-01-07 20:53:00,17.8,15.3,30.38,SSW,193,0.0,1.0,90,0.00,,,0.00,meteohub,2013-01-08 01:53:00,
2013-01-07 20:58:00,17.8,15.3,30.38,SSW,193,0.0,1.0,90,0.00,,,0.00,meteohub,2013-01-08 01:58:00,
2013-01-07 21:03:00,17.4,15.1,30.39,SSW,193,0.0,0.0,90,0.00,,,0.00,meteohub,2013-01-08 02:03:00,
2013-01-07 21:08:00,17.2,14.9,30.38,SSW,193,0.0,1.0,90,0.00,,,0.00,meteohub,2013-01-08 02:08:00,
2013-01-07 21:13:00,17.2,14.9,30.38,SSW,193,0.0,1.0,90,0.00,,,0.00,meteohub,2013-01-08 02:13:00,
2013-01-07 21:18:00,17.2,15.1,30.38,SSW,198,1.0,2.0,91,0.00,,,0.00,meteohub,2013-01-08 02:18:00,
2013-01-07 21:23:00,17.1,14.7,30.38,South,185,0.0,2.0,90,0.00,,,0.00,meteohub,2013-01-08 02:23:00,
2013-01-07 21:28:00,16.9,14.7,30.38,SSW,213,0.0,2.0,91,0.00,,,0.00,meteohub,2013-01-08 02:28:00,
2013-01-07 21:33:00,17.2,15.3,30.38,SSW,213,1.0,3.0,92,0.00,,,0.00,meteohub,2013-01-08 02:33:00,
2013-01-07 21:38:00,16.9,14.7,30.38,SSW,213,0.0,3.0,91,0.00,,,0.00,meteohub,2013-01-08 02:38:00,
2013-01-07 21:44:00,16.9,14.7,30.38,SSW,213,0.0,3.0,91,0.00,,,0.00,meteohub,2013-01-08 02:44:00,
2013-01-07 21:49:00,17.2,15.3,30.38,WSW,239,0.0,2.0,92,0.00,,,0.00,meteohub,2013-01-08 02:49:00,
2013-01-07 21:54:00,17.2,15.1,30.38,SW,216,0.0,3.0,91,0.00,,,0.00,meteohub,2013-01-08 02:54:00,
2013-01-07 21:59:00,17.1,14.7,30.38,SW,216,2.0,3.0,90,0.00,,,0.00,meteohub,2013-01-08 02:59:00,
2013-01-07 22:04:00,16.7,14.4,30.38,SW,216,0.0,3.0,90,0.00,,,0.00,meteohub,2013-01-08 03:04:00,
2013-01-07 22:09:00,16.3,14.0,30.38,SSW,193,0.0,2.0,90,0.00,,,0.00,meteohub,2013-01-08 03:09:00,
2013-01-07 22:14:00,16.3,14.2,30.38,ENE,70,0.0,2.0,91,0.00,,,0.00,meteohub,2013-01-08 03:14:00,
2013-01-07 22:19:00,16.5,14.4,30.38,East,85,0.0,4.0,91,0.00,,,0.00,meteohub,2013-01-08 03:19:00,
2013-01-07 22:24:00,16.5,14.4,30.38,East,85,0.0,4.0,91,0.00,,,0.00,meteohub,2013-01-08 03:24:00,
2013-01-07 22:29:00,16.5,14.4,30.38,SSE,149,2.0,4.0,91,0.00,,,0.00,meteohub,2013-01-08 03:29:00,
2013-01-07 22:34:00,16.3,14.2,30.38,SE,134,2.0,4.0,91,0.00,,,0.00,meteohub,2013-01-08 03:34:00,
2013-01-07 22:39:00,16.3,14.0,30.38,SE,144,1.0,4.0,90,0.00,,,0.00,meteohub,2013-01-08 03:39:00,
2013-01-07 22:44:00,16.2,14.0,30.38,East,81,0.0,4.0,91,0.00,,,0.00,meteohub,2013-01-08 03:44:00,
2013-01-07 22:50:00,16.0,13.8,30.38,WNW,297,0.0,4.0,91,0.00,,,0.00,meteohub,2013-01-08 03:50:00,
2013-01-07 22:55:00,16.0,13.8,30.37,East,89,1.0,4.0,91,0.00,,,0.00,meteohub,2013-01-08 03:55:00,
2013-01-07 23:00:00,16.0,13.8,30.37,South,181,0.0,4.0,91,0.00,,,0.00,meteohub,2013-01-08 04:00:00,
2013-01-07 23:05:00,16.2,14.0,30.37,East,79,0.0,4.0,91,0.00,,,0.00,meteohub,2013-01-08 04:05:00,
2013-01-07 23:10:00,16.2,14.2,30.37,ENE,63,1.0,4.0,92,0.00,,,0.00,meteohub,2013-01-08 04:10:00,
2013-01-07 23:15:00,16.3,14.4,30.37,South,185,0.0,4.0,92,0.00,,,0.00,meteohub,2013-01-08 04:15:00,
2013-01-07 23:20:00,16.5,14.5,30.37,NE,38,0.0,4.0,92,0.00,,,0.00,meteohub,2013-01-08 04:20:00,
2013-01-07 23:25:00,16.5,14.4,30.37,NE,38,0.0,4.0,91,0.00,,,0.00,meteohub,2013-01-08 04:25:00,
2013-01-07 23:30:00,16.5,14.4,30.36,SE,132,0.0,3.0,91,0.00,,,0.00,meteohub,2013-01-08 04:30:00,
2013-01-07 23:35:00,16.5,14.4,30.36,ESE,106,0.0,4.0,91,0.00,,,0.00,meteohub,2013-01-08 04:35:00,
2013-01-07 23:40:00,16.5,14.4,30.36,SW,231,1.0,4.0,91,0.00,,,0.00,meteohub,2013-01-08 04:40:00,
2013-01-07 23:45:00,16.9,14.9,30.36,SSW,204,0.0,5.0,92,0.00,,,0.00,meteohub,2013-01-08 04:45:00,
2013-01-07 23:50:00,16.9,14.7,30.36,East,86,0.0,5.0,91,0.00,,,0.00,meteohub,2013-01-08 04:50:00,
2013-01-07 23:55:00,16.9,14.7,30.35,ENE,69,0.0,5.0,91,0.00,,,0.00,meteohub,2013-01-08 04:55:00,